Miscellaneous Local Product
Issued by NWS North Platte, NE

Home | Current Version | Previous Version | Text Only | Print | Product List | Glossary On
Versions: 1 2 3 4 5 6 7 8 9 10 11 12 13 14 15 16 17 18 19 20 21 22 23 24 25 26 27 28 29 30 31 32 33 34 35 36 37 38 39 40 41 42 43 44 45 46 47 48 49 50
000
AXUS43 KLBF 190910
MISLBF


WESTERN AND NORTH CENTRAL NEBRASKA HOURLY WEATHER ROUNDUP
NATIONAL WEATHER SERVICE NORTH PLATTE NE
400 AM CDT SUN APR 19 2015

***STATIONS NOT REPORTING VARIABLES SUCH AS SKY/WEATHER OR
PRESSURE ARE PROVIDED BY THE NEBRASKA DEPARTMENT OF
ROADS...RAWS...AND APRS NETWORKS...AND ARE NOT UNDER
NATIONAL WEATHER SERVICE QUALITY CONTROL***

...OBSERVATIONS IN AND NEAR THE EASTERN PANHANDLE OF NEBRASKA...

CITY           SKY/WX    TMP DP  RH WIND       PRES   REMARKS
PINE RIDGE     CLOUDY    43  35  73 NW15G26   30.00R
CHADRON        MOCLDY    44  34  67 N9        30.04R
ALLIANCE       CLOUDY    42  36  79 N23G32    29.97S
SIDNEY         CLOUDY    42  37  82 N25G37    29.98R
WHITECLAY        N/A     40  33  76 NW14        N/A  WCI  33
CRESCENT LAKE    N/A     42  40  91 N24G43      N/A
BIG SPRINGS      N/A     48  44  87 NW6         N/A
$$

...OBSERVATIONS IN NORTH CENTRAL NEBRASKA...

CITY           SKY/WX    TMP DP  RH WIND       PRES   REMARKS
VALENTINE      CLOUDY    46  44  93 N15       29.90R
THEDFORD       CLOUDY    48  46  90 N18G26    29.89R
AINSWORTH      CLOUDY    47  45  94 N17G23    29.88R
O`NEILL        CLOUDY    50  48  93 NW15      29.82S
ORD            CLOUDY    52  48  86 NW17      29.78F
BROKEN BOW     CLOUDY    53  46  77 N15       29.80S
BROWNLEE         N/A     49  46  88 N20         N/A
SPRINGVIEW       N/A     46  44  91 NW10        N/A
BREWSTER         N/A     50  47  90 E9          N/A
ROSE             N/A     49  49  99 SW7         N/A
NEWPORT          N/A     47  46  95 NW17        N/A
SARGENT          N/A     51  48  90 NW5G14      N/A
COMSTOCK         N/A     54  50  87 NE15        N/A
EWING            N/A     52  50  93 NW14G23     N/A
$$

...OBSERVATIONS IN SOUTHWEST NEBRASKA AND FAR NORTHEAST COLORADO...

CITY           SKY/WX    TMP DP  RH WIND       PRES   REMARKS
WRAY           RAIN      46  46 100 N13G21    29.90R
HOLYOKE        DRIZZLE   46  43  87 N18G25    29.92R
IMPERIAL       LGT RAIN  47  44  90 N10       29.88S
OGALLALA       CLOUDY    48  44  86 N22G29    29.91R
NORTH PLATTE   LGT RAIN  49  46  90 NW14      29.85F
MCCOOK         CLOUDY    51  46  83 N16       29.82F
LEXINGTON      CLOUDY    52  49  90 NW9       29.81S
PAXTON           N/A     49  46  89 NW3         N/A
SUTHERLAND       N/A     44  40  89 SW9         N/A
BRADY            N/A     49  46  90 CALM        N/A
GOTHENBURG       N/A     51  47  85 NW8         N/A
CALLAWAY         N/A     50  48  92 N10         N/A
$$

...NORTH PLATTE AREA...

CITY           SKY/WX    TMP DP  RH WIND       PRES   REMARKS
AIRPORT        LGT RAIN  49  46  90 NW14      29.85F
DOWNTOWN         N/A     48  46  92 N6G16       N/A
$$

...SOME WEATHER OBSERVATIONS FROM AROUND THE REGION...

CITY           SKY/WX    TMP DP  RH WIND       PRES   REMARKS
DENVER         CLOUDY    40  35  83 N25G36    30.04R WCI  29
LARAMIE        FLURRIES  30  27  88 NW13      30.10R WCI  20
CHEYENNE       LGT SNOW  34  30  85 N25G41    30.05R FOG     WCI  21
SCOTTSBLUFF    CLOUDY    44 N/A N/A NW22G30   30.03R
RAPID CITY     MOCLDY    41  30  65 NW28G33   30.00R
PIERRE         CLOUDY    47  44  90 N25G32    29.86R
WINNER         LGT RAIN  48  44  86 NW16G24   29.87R
SIOUX FALLS    CLOUDY    56  55  97 SW5       29.72F
OMAHA          FOG       56  56 100 SE3       29.74F VSB 1
GRAND ISLAND   CLOUDY    52  47  83 W9        29.76F
KANSAS CITY    FOG       57  57 100 CALM      29.74F VSB 1/4
WICHITA        CLOUDY    52  50  93 CALM      29.73F
HAYS           MOCLDY    46  39  76 NE7       29.75S
LIBERAL        PTCLDY    43  34  70 W12       29.83S
GOODLAND       LGT RAIN  45  43  93 N9        29.86R
$$



USA.gov is the U.S. government's official web portal to all federal, state and local government web resources and services.